Location: Rounton
(54.4000°N, 1.3500°W)
Time: 15:02:01
(UTC+00:00)

Transit 2A Rocket - Pass Details

Date: 03 December 2021
Orbit: 584 x 918 km, 66.7° (Epoch: 21 January)

Event Time Altitude Azimuth Distance (km) Brightness Sun altitude
Rises 07:05:02 0° 175° (S) 3,339 8.8 -8.3°
Reaches altitude 10° 07:07:48 10° 162° (SSE) 2,462 8.3 -8.0°
Maximum altitude 07:12:21 25° 109° (ESE) 1,706 7.9 -7.4°
Drops below altitude 10° 07:17:08 10° 57° (ENE) 2,595 8.1 -6.8°
Sets 07:20:07 0° 45° (NE) 3,560 8.7 -6.4°
